Back to provider search

HCPCS Code detail

67966

Removal of over 1/4 of eyelid margin and repair of eyelid

Latest data year CY2023

Ranking basis

Providers are ordered to identify the highest Medicare FFS volume for this code. Higher volume is a utilization signal only and is not presented as a quality, outcomes, or appropriateness measure.

Providers billing code89Distinct nationwide ophthalmology providers in Medicare FFS
Services for code2,570Total selected-code Medicare FFS services
Beneficiaries2,326Beneficiaries tied to selected-code rows
Average allowedBy providerDisplayed per row from Medicare allowed amount

Code-specific provider rankings

Filter by state or city, then sort providers by selected-code utilization, beneficiaries, average allowed amount, or overall Medicare FFS footprint.

National code rankState code rankProviderNPIMarketServicesBeneficiariesAverage Medicare allowedPlace of serviceProvider total services
#51Filter by stateKevin S Michels1841405404Spokane, WA1818$644.49F4,761
#52Filter by stateLoreley D Smith1619328481San Francisco, CA1714$823.75F435
#53Filter by stateJordan D Spindle1740501972Tyler, TX1717$589.16F9,208
#54Filter by stateJonathan H Tsai1851368286Temple, TX1715$590.14F1,109
#55Filter by stateBrian T Fowler1093987893Memphis, TN1616$465.09F7,851
#56Filter by stateMarcus J Ko1235302183Reno, NV1616$634.46F2,646
#57Filter by statePhilip L Custer1538187968Saint Louis, MO1615$379.48F4,271
#58Filter by stateLaryssa R Dragan1598982902Fort Collins, CO1615$622.70F1,136
#59Filter by stateWilliam R Vickers1639269798Port Saint Lucie, FL1616$764.44O3,761
#60Filter by stateRoman Shinder1659578789Little Neck, NY1615$422.05O1,223
#61Filter by stateSukesh K Kansal1760479240Salina, KS1615$715.89O9,293
#62Filter by stateAri Abel1932153293Wilmington, DE1616$772.97O2,831
#63Filter by stateGeoffrey Gladstone1982634499Southfield, MI1616$488.30F1,772
#64Filter by stateKiran Sajja1013129725Suwanee, GA1515$629.03F4,672
#65Filter by stateDavid O Magnante1255309423Lafayette, IN1513$488.58F1,830
#66Filter by stateFrancesca D Nesi-Eloff1285856484Southfield, MI1514$654.43F3,514
#67Filter by stateDavid A Kostick1336139187Jacksonville, FL1515$643.19F6,903
#68Filter by stateAlexander Grand1861694077Sacramento, CA1515$921.94F13,264
#69Filter by stateRao V Chundury1285953893Omaha, NE1413$637.98O1,425
#70Filter by stateJames Kirszrot1447234117Westwood, NJ1414$909.19O2,889
#71Filter by stateKyle V Acosta1518959154Covington, LA1413$324.23F10,551
#72Filter by stateJeffrey O Carlsen1609834076Johnson City, TN1412$446.15F4,501
#73Filter by stateChet E Reistad1629074083Fort Collins, CO1412$579.62F4,922
#74Filter by stateJoseph Giacometti1821232265Scranton, PA1414$602.11F8,965
#75Filter by stateRyan Scruggs1891954608Deland, FL1413$584.47F12,740

Full code-specific utilization ranking

Request the full provider utilization export, named peer comparison, and code-specific market scan for this CPT/HCPCS code.

Request full code benchmark